www.pogodaiklimat.ru

Погода и климат >> Архив погоды >> Россия >> Тамбовская область >> Жердевка


ПОГОДА в Жердевке

  • Прогноз погоды в Жердевке
  • Монитор погоды в Жердевке

АРХИВ ПОГОДЫ в Жердевке

Время (UTC), дата Ветер
(напр.,м/с)
 
Видим.   Явления Облачность Т
(С)
Тd
(С)
f
(%)
Тe
(С)
Тes
(С)
Комфортность P
(гПа)
Po
(гПа)
Тmin
(С)
Tmax
(С)
R
(мм)
R24
(мм)
S
(см)
18 14.07 Ю 2 20 км 8/8 630 м
[Cb cap]
+20.1 +11.9 59 +22 +22 комфорт 1009.5 992.4
21 14.07 Ю 2 10 км слаб. ливневой дождь 8/8 570 м
[Cb cap]
+16.1 +14.3 89 +16 +16 1009.7 992.4
00 15.07 С 1 20 км {ливн. осадки} 3/3 600 м
[Cb cap]
+14.4 +12.7 90 +15 +15 1009.5 992.1
03 15.07 СЗ 2 10 км 3/0
[Ac trans]
+14.0 +12.2 89 +13 +15 1010.0 992.5 +13.3 5
06 15.07 В 2 20 км ясно +21.9 +11.8 53 +24 +34 комфорт 1010.1 993.1
09 15.07 В 2 50 км 8/8 840 м
[Cu med, cong]
+23.9 +8.6 38 +25 +28 комфорт 1010.7 992.8
12 15.07 В 1 50 км 8/8 870 м
[Cu med, cong]
+24.8 +7.1 32 +25 +28 комфорт 1009.5 992.6
15 15.07 В 1 50 км 3/3 600 м
[Cu med, cong]
+26.0 +5.6 27 +25 +27 комфорт 1009.0 992.2 +26.4
18 15.07 В 1 20 км 3/0
[Ac trans]
+19.7 +8.4 48 +22 +22 комфорт 1010.3 993.2
21 15.07 СВ 1 20 км 3/0
[Ac trans]
+16.8 +8.6 58 +18 +18 1010.5 993.3
00 16.07 С 1 20 км 4/0
[Ac trans]
+14.4 +8.9 70 +15 +15 1010.7 993.2
03 16.07 С 1 10 км 8/0
[Ac trans Ci fib]
+15.0 +9.8 71 +16 +17 1010.6 993.3 +12.6
06 16.07 В 3 20 км 9/0
[Ac trans]
+21.7 +11.1 51 +24 +27 комфорт 1010.1 993.1
09 16.07 Ю 2 20 км 9/9 630 м
[Cb cap]
+20.7 +11.3 55 +23 +25 комфорт 1010.8 993.8
12 16.07 В 1 20 км {ливн. осадки} 8/8 630 м
[Cb cap]
+20.9 +12.6 59 +24 +27 комфорт 1009.9 992.9
15 16.07 ЮВ 1 20 км 8/8 600 м
[Cb cap]
+20.5 +13.9 66 +24 +25 комфорт 1009.6 992.6 +21.8 0.4
18 16.07 СВ 2 10 км {ливн. осадки} 10/10 600 м
[Cb cap]
+16.3 +14.4 89 +16 +16 1009.6 992.4
21 16.07 В 2 10 км {ливн. осадки} 10/10 600 м
[Cb cap]
+16.3 +14.2 87 +16 +16 1009.0 991.8
00 17.07 В 2 4000 м слаб. ливневой дождь 10/10 570 м
[Cb cap]
+15.4 +14.3 93 +15 +15 1007.7 990.4
03 17.07 СВ 1 4000 м дымка {ливн. осадки} 10/10 600 м
[Cb cap]
+15.6 +14.9 96 +16 +16 1006.1 988.8 +15.4 2
06 17.07 В 2 4000 м дымка {ливн. осадки} 10/10 570 м
[Cb cap]
+17.2 +16.4 95 +18 +18 1005.1 988.0
09 17.07 штиль 0 20 км {ливн. осадки} 10/10 600 м
[Cb cap]
+20.2 +15.7 75 +23 +23 комфорт 1004.9 988.0
12 17.07 З 1 50 км {ливн. осадки} 8/8 630 м
[Cb cap]
+21.8 +15.2 66 +25 +28 комфорт 1004.4 987.5
15 17.07 З 3 50 км 8/8 570 м
[Cb cap]
+21.4 +15.1 67 +25 +25 комфорт 1004.5 987.6 +23.5 0.3
18 17.07 З 1 50 км 3/3 600 м
[Cb cap]
+17.4 +15.0 86 +18 +18 1005.3 988.2
21 17.07 ЮЗ 1 20 км 3/0
[Ci sp]
+15.6 +14.9 96 +16 +16 1005.6 988.3
00 18.07 Ю 1 20 км ясно +13.6 +13.0 96 +14 +14 1005.8 988.4
03 18.07 Ю 1 10 км ясно +15.1 +14.2 94 +16 +17 1007.1 989.8 +12.9
06 18.07 З 2 20 км ясно +20.3 +14.5 69 +23 +33 комфорт 1007.7 990.7
09 18.07 З 2 50 км 3/3 1000 м
[Cu med, cong]
+24.4 +10.4 41 +25 +37 комфорт 1007.7 990.8
12 18.07 ЮЗ 3 50 км 4/4 1000 м
[Cu med, cong]
+26.7 +8.8 32 +27 +32 жарко 1007.2 990.4
15 18.07 З 2
{12}
50 км 3/3 1000 м
[Cu med, cong]
+25.6 +11.5 41 +27 +28 жарко 1007.6 990.8 +26.8
18 18.07 ЮЗ 1 20 км 3/3 1000 м
[Cu med, cong]
+20.5 +11.5 56 +23 +23 комфорт 1008.7 991.7
21 18.07 штиль 0 20 км ясно +15.8 +9.9 68 +16 +16 1009.5 992.2
00 19.07 З 1 20 км ясно +13.1 +10.2 83 +13 +13 1010.8 993.3
03 19.07 З 1 10 км 3/0
[Ac trans]
+14.1 +10.6 79 +14 +16 1011.8 994.3 +12.9
06 19.07 З 2 20 км ясно +21.4 +9.5 47 +23 +33 комфорт 1012.0 994.9
09 19.07 З 4 20 км 3/3 1000 м
[Cu med, cong]
+23.8 +7.4 35 +24 +32 комфорт 1011.9 994.9
12 19.07 ЮЗ 3 50 км 5/5 1000 м
[Cu med, cong]
+25.8 +7.8 32 +26 +31 жарко 1011.5 994.7
15 19.07 З 2 50 км 4/4 1000 м
[Cu med, cong]
+25.4 +8.4 34 +26 +27 жарко 1011.6 994.8 +26.0
18 19.07 ЮЗ 1 20 км ясно +18.4 +9.8 57 +20 +20 1012.6 995.3
21 19.07 ЮЗ 1 20 км 1/0
[Ac trans]
+15.2 +10.9 75 +16 +16 1013.7 996.3
00 20.07 З 1 20 км ясно +13.6 +10.7 83 +14 +14 1014.8 997.2
03 20.07 Ю 1 20 км ясно +14.7 +12.1 84 +15 +17 1015.6 998.2 +12.0
06 20.07 ЮВ 3 20 км ясно +22.5 +11.2 49 +25 +33 комфорт 1015.7 998.9
09 20.07 З 4 20 км 6/6 1000 м
[Cu med, cong]
+25.3 +8.9 35 +26 +30 жарко 1015.6 998.8
12 20.07 З 5-10
{11}
50 км 6/6 1000 м
[Cu med, cong]
+27.1 +7.1 28 +27 +29 жарко 1015.3 998.6
15 20.07 З 4
{10}
50 км 4/4 1000 м
[Cu med, cong]
+26.4 +7.4 30 +26 +27 жарко 1015.2 998.4 +27.5
18 20.07 З 2 20 км ясно +19.0 +8.6 51 +20 +20 1016.3 999.1
21 20.07 ЮЗ 1 20 км ясно +15.7 +9.2 65 +16 +16 1017.2 999.7
00 21.07 штиль 0 20 км ясно +13.4 +9.5 77 +13 +13 1017.6 1000.0
03 21.07 ЮЗ 1 10 км 3/0
[Ac lent]
+15.2 +10.3 73 +16 +17 1017.8 1000.3 +12.6
06 21.07 ЮЗ 1 10 км 3/0
[Ci sp]
+23.0 +11.2 47 +25 +36 комфорт 1017.8 1000.8
09 21.07 З 3 20 км 5/5 1000 м
[Cu med, cong]
+27.4 +9.4 32 +28 +34 жарко 1016.9 1000.1
12 21.07 З 4
{11}
50 км 4/4 1000 м
[Cu med, cong]
+28.6 +8.4 28 +28 +33 жарко 1016.3 999.6
15 21.07 З 3 50 км 3/3 1000 м
[Cu hum]
+27.7 +9.0 31 +28 +29 жарко 1015.5 998.8 +29.0

 

Местоположение метеостанции Жердевка (Тамбовская область, Россия): широта 51.83 долгота 41.48 высота над уровнем моря 147 м.

В архиве по умолчанию представлена погода в Жердевке за последнюю неделю. Архивные данные за месяц целиком и за предыдущие месяцы, начиная с января 2011 года, Вы можете получить, выбрав интересующий диапазон дат из раскрывающегося списка и нажав кнопку "Ввод!".


*Определитесь, кто Вы:
робот инопланетянин человек

Внимание! Время в таблицах - всемирное. Для получения местного времени необходимо прибавить поправку, которая равна 3 ч.

Смотрите также архив погоды в соседних городах и на ближайших метеорологических станциях:

Погода в Обловке (Тамбовская область, Россия) (56 км)
Погода в Совхозе им. Ленина (Тамбовская область, Россия) (59 км)
Погода в Борисоглебске (Воронежская область, Россия) (66 км)
Погода в Анне (Воронежская область, Россия) (83 км)
Погода в Каменной Степи (Воронежская область, Россия) (102 км)
Погода в Тамбове (Тамбовская область, Россия) (108 км)
Погода в Балашове (Саратовская область, Россия) (119 км)
Погода в Урюпинске (Волгоградская область, Россия) (120 км)
Погода в Кирсанове (Тамбовская область, Россия) (126 км)
Погода в Мичуринске (Тамбовская область, Россия) (135 км)

Пояснения к столбцам:

Ветер - указаны скорость ветра в м/с - средняя за 10 мин, порывы в срок и между сроками (в фигурных скобках) и направление, откуда дует ветер: С - северный, СВ - северо-восточный, В - восточный, ЮВ - юго-восточный, Ю - южный, ЮЗ - юго-западный, З - западный, СЗ - северо-западный.
Видимость - горизонтальная дальность видимости в метрах или километрах. При видимости от 1 до 10 км при отсутствии осадков обычно наблюдается дымка, при ухудшении видимости до 1 км и менее - туман. В сухую погоду видимость может ухудшаться дымом, пылью или мглою.
Явления - указаны атмосферные явления, наблюдавшиеся в срок или в последний час перед сроком; фигурными скобками обозначены явления, наблюдавшиеся между сроками (за 1-3 часа до срока); квадратными скобками обозначены град или гололедные отложения с указанием их диаметра в мм.
Облачность - указаны через наклонную черту общая и нижняя облачность в баллах и высота нижней границы облаков в метрах; квадратными скобками обозначены формы облаков: Ci - перистые, Cs - перисто-слоистые, Cc - перисто-кучевые, Ac - высококучевые, As - высокослоистые, Sc - слоисто-кучевые, Ns - слоисто-дождевые, Cu - кучевые, Cb - кучево-дождевые. Подробнее классификацию облаков см. в Атласе облаков (PDF).
T - Температура воздуха - температура, измеренная на высоте 2 м над землей.
Td - Температура точки росы - температура, при понижении до которой содержащийся в воздухе водяной пар достигнет насыщения.
f - Относительная влажность воздуха - влажноcть воздуха, измеренная на высоте 2 м над землей.
Te - Эффективная температура - температура, которую ощущает одетый по сезону человек в тени. Характеристика душности погоды. При расчете учитывается влияние влажности воздуха и скорости ветра на теплоощущения человека.
Tes - Эффективная температура на солнце - температура, которую ощущает человек, с поправкой на солнечный нагрев. Характеристика знойности погоды. Зависит от высоты солнца над горизонтом, облачности и скорости ветра. Ночью, в пасмурную погоду, а также при ветре 12 м/с и более поправка равна нулю.
P - Атмосферное давление - приведенное к уровню моря атмосферное давление.
Po - Атмосферное давление - измеренное на уровне метеостанции атмосферное давление.
Tmin - Минимальная температура - минимум температуры воздуха на высоте 2 м над землей.
Tmax - Максимальная температура - максимум температуры воздуха на высоте 2 м над землей.
R - Количество осадков - Количество выпавших осадков за период времени, мм. При наведении курсора мыши на число - период времени, за который выпало указанное количество осадков.
R24 - Количество осадков - Количество выпавших осадков за 24 часа, мм.
S - Снежный покров - Высота снежного покрова, см. При наведении курсора мыши на число - состояние снежного покрова и степень покрытия местности в баллах.